When you browse on this site, cookies collect data to enhance your experience and personalize the content and advertising you see.
Visit our Privacy Policy to learn more. By continuing to use the site, you agree to this use of cookies and data.
  • In Slovakia
  • List of Countries
  • For 7 days
  • Water Temperature
  • Satellite Maps
  • Weather Map
  • Weather Widgets
  • user-avatar
    Login

    Hourly Weather Kolesnikovo

    Today, 19 February, Tuesday

    Time Temperature Precipitation Wind Pressure Humidity
    00:00 -10°C° 0 mm 2 mps 750 mmHg 91%
    01:00 -10°C° 0 mm 2 mps 750 mmHg 91%
    02:00 -12°C° 0 mm 3 mps 750 mmHg 91%
    03:00 -10°C° 0 mm 3 mps 749 mmHg 89%
    04:00 -11°C° 0 mm 4 mps 748 mmHg 87%
    05:00 -10°C° 0 mm 4 mps 748 mmHg 85%
    06:00 -10°C° 0 mm 5 mps 747 mmHg 82%
    07:00 -10°C° 0 mm 5 mps 746 mmHg 80%
    08:00 -8°C° 0 mm 5 mps 746 mmHg 78%
    09:00 -7°C° 0 mm 5 mps 745 mmHg 75%
    10:00 -5°C° 0 mm 5 mps 745 mmHg 72%
    11:00 -4°C° 0 mm 5 mps 744 mmHg 69%
    12:00 -2°C° 0 mm 5 mps 744 mmHg 72%
    13:00 -2°C° 0 mm 5 mps 744 mmHg 75%
    14:00 -1°C° 0 mm 4 mps 743 mmHg 78%
    15:00 -2°C° 0 mm 4 mps 743 mmHg 80%
    16:00 -3°C° 0 mm 4 mps 742 mmHg 82%
    17:00 -2°C° 0 mm 3 mps 742 mmHg 84%
    18:00 -4°C° 0 mm 4 mps 741 mmHg 84%
    19:00 -4°C° 0 mm 4 mps 741 mmHg 85%
    20:00 -4°C° 0 mm 4 mps 740 mmHg 85%
    21:00 -4°C° 0 mm 4 mps 740 mmHg 86%
    22:00 -5°C° 0 mm 5 mps 739 mmHg 88%
    23:00 -4°C° 0 mm 5 mps 738 mmHg 89%

    Tomorrow, 20 February, Wednesday

    Time Temperature Precipitation Wind Pressure Humidity
    00:00 -4°C° 0 mm 5 mps 738 mmHg 88%
    01:00 -2°C° 0 mm 5 mps 737 mmHg 88%
    02:00 -2°C° 0 mm 5 mps 736 mmHg 88%
    03:00 -1°C° 0.1 mm 5 mps 736 mmHg 88%
    04:00 -1°C° 0.1 mm 5 mps 735 mmHg 89%
    05:00 -1°C° 0.1 mm 5 mps 734 mmHg 89%
    06:00 -1°C° 0.1 mm 5 mps 734 mmHg 90%
    07:00 -1°C° 0.1 mm 5 mps 734 mmHg 91%
    08:00 0°C° 0.1 mm 5 mps 734 mmHg 92%
    09:00 0°C° 0 mm 5 mps 734 mmHg 92%
    10:00 0°C° 0 mm 5 mps 734 mmHg 92%
    11:00 0°C° 0 mm 5 mps 734 mmHg 93%
    12:00 0°C° 0 mm 4 mps 734 mmHg 93%
    13:00 0°C° 0 mm 4 mps 734 mmHg 93%
    14:00 0°C° 0 mm 4 mps 734 mmHg 93%
    15:00 0°C° 0 mm 4 mps 733 mmHg 92%
    16:00 0°C° 0 mm 4 mps 733 mmHg 92%
    17:00 -1°C° 0 mm 4 mps 733 mmHg 92%
    18:00 -1°C° 0.1 mm 4 mps 733 mmHg 91%
    19:00 -1°C° 0.1 mm 4 mps 733 mmHg 91%
    20:00 -1°C° 0.1 mm 4 mps 732 mmHg 91%
    21:00 -1°C° 0.2 mm 4 mps 732 mmHg 91%
    22:00 -1°C° 0.2 mm 4 mps 732 mmHg 91%
    23:00 0°C° 0.2 mm 3 mps 731 mmHg 91%

    Day after tomorrow, 21 February, Thursday

    Time Temperature Precipitation Wind Pressure Humidity
    00:00 -1°C° 0.3 mm 3 mps 731 mmHg 92%
    01:00 -1°C° 0.3 mm 3 mps 731 mmHg 92%
    02:00 -1°C° 0.3 mm 3 mps 731 mmHg 92%
    03:00 -2°C° 0.1 mm 3 mps 731 mmHg 91%
    04:00 -2°C° 0.1 mm 3 mps 731 mmHg 91%
    05:00 -4°C° 0.1 mm 3 mps 731 mmHg 90%
    06:00 -4°C° 0 mm 3 mps 732 mmHg 90%
    07:00 -2°C° 0 mm 3 mps 732 mmHg 91%
    08:00 -2°C° 0 mm 3 mps 732 mmHg 91%
    09:00 -3°C° 0.3 mm 4 mps 733 mmHg 90%
    10:00 -5°C° 0.3 mm 5 mps 733 mmHg 89%
    11:00 -5°C° 0.3 mm 6 mps 734 mmHg 87%
    12:00 -5°C° 0.2 mm 6 mps 734 mmHg 87%
    13:00 -5°C° 0.2 mm 5 mps 735 mmHg 87%
    14:00 -5°C° 0.2 mm 5 mps 735 mmHg 86%
    15:00 -6°C° 0.2 mm 6 mps 736 mmHg 86%
    16:00 -8°C° 0.2 mm 6 mps 737 mmHg 86%
    17:00 -9°C° 0.2 mm 7 mps 738 mmHg 85%
    18:00 -9°C° 0.2 mm 7 mps 739 mmHg 84%
    19:00 -10°C° 0.2 mm 6 mps 740 mmHg 83%
    20:00 -11°C° 0.2 mm 6 mps 741 mmHg 82%
    21:00 -11°C° 0.1 mm 6 mps 742 mmHg 81%
    22:00 -12°C° 0.1 mm 6 mps 743 mmHg 79%
    23:00 -14°C° 0.1 mm 6 mps 744 mmHg 77%

    22 February, Friday

    Time Temperature Precipitation Wind Pressure Humidity
    00:00 -14°C° 0 mm 6 mps 745 mmHg 77%
    01:00 -15°C° 0 mm 6 mps 745 mmHg 77%
    02:00 -16°C° 0 mm 6 mps 746 mmHg 78%
    03:00 -16°C° 0 mm 6 mps 747 mmHg 77%
    04:00 -16°C° 0 mm 6 mps 747 mmHg 77%
    05:00 -16°C° 0 mm 6 mps 748 mmHg 76%
    06:00 -16°C° 0 mm 6 mps 749 mmHg 76%
    07:00 -16°C° 0 mm 6 mps 749 mmHg 76%
    08:00 -16°C° 0 mm 6 mps 750 mmHg 76%
    09:00 -15°C° 0 mm 7 mps 750 mmHg 74%
    10:00 -14°C° 0 mm 7 mps 750 mmHg 73%
    11:00 -14°C° 0 mm 7 mps 751 mmHg 71%
    12:00 -13°C° 0 mm 7 mps 751 mmHg 70%
    13:00 -12°C° 0 mm 7 mps 751 mmHg 68%
    14:00 -12°C° 0 mm 7 mps 751 mmHg 67%
    15:00 -13°C° 0 mm 7 mps 751 mmHg 69%
    16:00 -12°C° 0 mm 6 mps 752 mmHg 72%
    17:00 -14°C° 0 mm 6 mps 752 mmHg 74%
    18:00 -15°C° 0 mm 6 mps 753 mmHg 75%
    19:00 -15°C° 0 mm 6 mps 754 mmHg 76%
    20:00 -15°C° 0 mm 6 mps 754 mmHg 77%
    21:00 -15°C° 0 mm 5 mps 755 mmHg 78%
    22:00 -15°C° 0 mm 5 mps 755 mmHg 79%
    23:00 -15°C° 0 mm 5 mps 755 mmHg 80%

    23 February, Saturday

    Time Temperature Precipitation Wind Pressure Humidity
    00:00 -15°C° 0 mm 5 mps 756 mmHg 81%
    01:00 -15°C° 0 mm 5 mps 756 mmHg 81%
    02:00 -15°C° 0 mm 5 mps 756 mmHg 82%
    03:00 -15°C° 0 mm 4 mps 757 mmHg 83%
    04:00 -16°C° 0 mm 4 mps 757 mmHg 85%
    05:00 -16°C° 0 mm 4 mps 757 mmHg 86%
    06:00 -16°C° 0 mm 4 mps 757 mmHg 87%
    07:00 -17°C° 0 mm 4 mps 757 mmHg 88%
    08:00 -17°C° 0 mm 4 mps 757 mmHg 89%
    09:00 -16°C° 0 mm 4 mps 758 mmHg 86%
    10:00 -14°C° 0 mm 3 mps 758 mmHg 83%
    11:00 -13°C° 0 mm 3 mps 758 mmHg 80%
    12:00 -13°C° 0 mm 3 mps 758 mmHg 78%
    13:00 -12°C° 0 mm 3 mps 758 mmHg 76%
    14:00 -10°C° 0 mm 3 mps 757 mmHg 73%
    15:00 -10°C° 0 mm 2 mps 758 mmHg 78%
    16:00 -12°C° 0 mm 2 mps 758 mmHg 83%
    17:00 -12°C° 0 mm 2 mps 758 mmHg 87%
    18:00 -11°C° 0 mm 1 mps 758 mmHg 89%
    19:00 -11°C° 0 mm 1 mps 759 mmHg 91%
    20:00 -12°C° 0 mm 1 mps 759 mmHg 92%
    21:00 -12°C° 0 mm 1 mps 760 mmHg 93%
    22:00 -12°C° 0 mm 1 mps 760 mmHg 93%
    23:00 -12°C° 0 mm 1 mps 760 mmHg 93%

    24 February, Sunday

    Time Temperature Precipitation Wind Pressure Humidity
    00:00 -12°C° 0 mm 1 mps 761 mmHg 93%
    01:00 -13°C° 0 mm 1 mps 761 mmHg 93%
    02:00 -13°C° 0 mm 1 mps 761 mmHg 93%
    03:00 -13°C° 0 mm 1 mps 761 mmHg 92%
    04:00 -13°C° 0 mm 1 mps 761 mmHg 92%
    05:00 -13°C° 0 mm 1 mps 761 mmHg 92%
    06:00 -13°C° 0 mm 1 mps 761 mmHg 91%
    07:00 -12°C° 0 mm 1 mps 762 mmHg 90%
    08:00 -12°C° 0 mm 1 mps 762 mmHg 89%
    09:00 -10°C° 0 mm 1 mps 762 mmHg 86%
    10:00 -9°C° 0 mm 2 mps 761 mmHg 82%
    11:00 -8°C° 0 mm 2 mps 761 mmHg 79%
    12:00 -7°C° 0 mm 2 mps 761 mmHg 77%
    13:00 -7°C° 0 mm 3 mps 760 mmHg 76%
    14:00 -7°C° 0 mm 3 mps 760 mmHg 74%
    15:00 -7°C° 0 mm 3 mps 759 mmHg 77%
    16:00 -8°C° 0 mm 3 mps 758 mmHg 79%
    17:00 -9°C° 0 mm 3 mps 758 mmHg 82%
    18:00 -10°C° 0 mm 4 mps 757 mmHg 81%
    19:00 -10°C° 0 mm 4 mps 756 mmHg 81%
    20:00 -10°C° 0 mm 4 mps 755 mmHg 80%
    21:00 -9°C° 0 mm 4 mps 755 mmHg 78%
    22:00 -10°C° 0 mm 5 mps 754 mmHg 76%
    23:00 -10°C° 0 mm 5 mps 753 mmHg 74%
    Show more